Terminal Aerodrome Forecast
Issued by NWS Shreveport, LA

Home | Current Version | Previous Version | Text Only | Print | Product List | Glossary On
Versions: 1 2 3 4 5 6 7 8 9 10 11 12 13 14 15 16
000
FTUS44 KSHV 251740
TAFELD
TAF
KELD 251740Z 2518/2618 18010KT P6SM BKN035 OVC060
     FM260000 17012KT P6SM VCTS BKN040CB OVC060
     FM260200 16010KT 5SM TSRA BR OVC035CB
     FM260900 17008KT 5SM -SHRA VCTS OVC020CB
     FM261500 19010KT P6SM BKN025=

USA.gov is the U.S. government's official web portal to all federal, state and local government web resources and services.